Hlavní strana
METAR-TAF:

METAR-TAF

Letiště :

Corinth, Mississippi, Spojené státy americké

zeměpisná šířka: 34-54-54N, zeměpisná délka: 088-36-13W, výška: 130 m

Aktuální stav počasí

Zpráva byla vytvořena před 25 minutami, v 01:15 UTC
Severozápadní vítr 10 kt
Teplota 12°C
Vlhkost vzduchu 71%
Tlak 1022 hPa
Viditelnost: 16.1 km
Jasno

METAR: KCRX 190115Z AUTO 31010KT 10SM CLR 12/07 A3018 RMK AO2

Čas: 19:40 (01:40 UTC)


TAF: chybějící

Stav a předpovědi počasí z více než 4 000 letišť (zprávy METAR a TAF).

Červené a žluté tečky na mapě představují dostupné meteorologické stanice.

Když kurzor umístíte na tečku, zobrazí se název stanice.

Pak kliknutím zobrazíte stav a předpověď počasí.

Chcete-li změnit mapu, kliknutím na zelené tlačítko se znaménkem +mapu přiblížíte, kliknutím na zelené tlačítko se znaménkem – mapu oddálíte a kliknutím na zelené šipky přejdete na sousední mapy.


METAR-TAF: